Year,Month,Day,Hour,Minute,Value (Times are PST for temperature in C)
2009,03,12,00,00,-3.60
2009,03,12,00,01,-3.60
2009,03,12,00,02,-3.60
2009,03,12,00,03,-3.70
2009,03,12,00,04,-3.70
2009,03,12,00,05,-3.70
2009,03,12,00,06,-3.70
2009,03,12,00,07,-3.70
2009,03,12,00,08,-3.70
2009,03,12,00,09,-3.70
2009,03,12,00,10,-3.70
2009,03,12,00,11,-3.70
2009,03,12,00,12,-3.80
2009,03,12,00,13,-3.80
2009,03,12,00,14,-3.80
2009,03,12,00,15,-3.80
2009,03,12,00,16,-3.80
2009,03,12,00,17,-3.80
2009,03,12,00,18,-3.80
2009,03,12,00,19,-3.80
2009,03,12,00,20,-3.80
2009,03,12,00,21,-3.80
2009,03,12,00,22,-3.80
2009,03,12,00,23,-3.80
2009,03,12,00,24,-3.80
2009,03,12,00,25,-3.80
2009,03,12,00,26,-3.80
2009,03,12,00,27,-3.80
2009,03,12,00,28,-3.80
2009,03,12,00,29,-3.70
2009,03,12,00,30,-3.70
2009,03,12,00,31,-3.70
2009,03,12,00,32,-3.70
2009,03,12,00,33,-3.70
2009,03,12,00,34,-3.70
2009,03,12,00,35,-3.70
2009,03,12,00,36,-3.70
2009,03,12,00,37,-3.70
2009,03,12,00,38,-3.70
2009,03,12,00,39,-3.70
2009,03,12,00,40,-3.70
2009,03,12,00,41,-3.70
2009,03,12,00,42,-3.70
2009,03,12,00,43,-3.80
2009,03,12,00,44,-3.80
2009,03,12,00,45,-3.80
2009,03,12,00,46,-3.80
2009,03,12,00,47,-3.80
2009,03,12,00,48,-3.80
2009,03,12,00,49,-3.80
2009,03,12,00,50,-3.80
2009,03,12,00,51,-3.80
2009,03,12,00,52,-3.80
2009,03,12,00,53,-3.80
2009,03,12,00,54,-3.80
2009,03,12,00,55,-3.80
2009,03,12,00,56,-3.80
2009,03,12,00,57,-3.80
2009,03,12,00,58,-3.80
2009,03,12,00,59,-3.80
2009,03,12,01,00,-3.80
2009,03,12,01,01,-3.80
2009,03,12,01,02,-3.80
2009,03,12,01,03,-3.80
2009,03,12,01,04,-3.80
2009,03,12,01,05,-3.80
2009,03,12,01,06,-3.80
2009,03,12,01,07,-3.80
2009,03,12,01,08,-3.80
2009,03,12,01,09,-3.80
2009,03,12,01,10,-3.80
2009,03,12,01,11,-3.80
2009,03,12,01,12,-3.80
2009,03,12,01,13,-3.90
2009,03,12,01,14,-3.90
2009,03,12,01,15,-3.90
2009,03,12,01,16,-3.90
2009,03,12,01,17,-3.90
2009,03,12,01,18,-3.90
2009,03,12,03,02,-4.90
2009,03,12,03,03,-4.90
2009,03,12,03,04,-4.90
2009,03,12,03,05,-4.90
2009,03,12,03,06,-4.90
2009,03,12,03,07,-4.90
2009,03,12,03,08,-4.90
2009,03,12,03,09,-4.90
2009,03,12,03,10,-4.90
2009,03,12,03,11,-4.90
2009,03,12,03,12,-4.90
2009,03,12,03,13,-4.90
2009,03,12,03,14,-4.90
2009,03,12,03,15,-4.90
2009,03,12,03,16,-4.90
2009,03,12,03,17,-4.90
2009,03,12,03,18,-4.90
2009,03,12,03,19,-4.90
2009,03,12,03,20,-4.90
2009,03,12,03,21,-4.90
2009,03,12,03,22,-4.90
2009,03,12,03,23,-4.90
2009,03,12,03,24,-4.90
2009,03,12,03,25,-4.90
2009,03,12,03,26,-4.90
2009,03,12,03,27,-4.90
2009,03,12,03,28,-4.90
2009,03,12,03,29,-4.90
2009,03,12,03,30,-4.90
2009,03,12,03,31,-4.90
2009,03,12,03,32,-4.90
2009,03,12,03,33,-4.90
2009,03,12,03,34,-4.90
2009,03,12,03,35,-4.90
2009,03,12,03,36,-4.90
2009,03,12,03,37,-4.90
2009,03,12,03,38,-4.90
2009,03,12,03,39,-4.90
2009,03,12,03,40,-4.90
2009,03,12,03,41,-4.90
2009,03,12,03,42,-4.90
2009,03,12,03,43,-4.90
2009,03,12,03,44,-4.90
2009,03,12,03,45,-5.00
2009,03,12,03,46,-5.00
2009,03,12,03,47,-5.00
2009,03,12,03,48,-5.00
2009,03,12,03,49,-5.10
2009,03,12,03,50,-5.10
2009,03,12,03,51,-5.10
2009,03,12,03,52,-5.10
2009,03,12,03,53,-5.10
2009,03,12,03,54,-5.20
2009,03,12,03,55,-5.20
2009,03,12,03,56,-5.20
2009,03,12,03,57,-5.20
2009,03,12,03,58,-5.20
2009,03,12,03,59,-5.20
2009,03,12,04,00,-5.20
2009,03,12,04,01,-5.20
2009,03,12,04,02,-5.20
2009,03,12,04,03,-5.20
2009,03,12,04,04,-5.30
2009,03,12,04,05,-5.30
2009,03,12,04,06,-5.30
2009,03,12,04,07,-5.30
2009,03,12,04,08,-5.30
2009,03,12,04,09,-5.20
2009,03,12,04,10,-5.20
2009,03,12,04,11,-5.20
2009,03,12,04,12,-5.20
2009,03,12,04,13,-5.20
2009,03,12,04,14,-5.20
2009,03,12,04,15,-5.20
2009,03,12,04,16,-5.20
2009,03,12,04,17,-5.30
2009,03,12,04,18,-5.20
2009,03,12,04,19,-5.30
2009,03,12,04,20,-5.30
2009,03,12,04,21,-5.30
2009,03,12,04,22,-5.30
2009,03,12,04,23,-5.30
2009,03,12,04,24,-5.30
2009,03,12,04,25,-5.30
2009,03,12,04,26,-5.30
2009,03,12,04,27,-5.30
2009,03,12,04,28,-5.30
2009,03,12,04,29,-5.30
2009,03,12,04,30,-5.30
2009,03,12,04,31,-5.30
2009,03,12,04,32,-5.30
2009,03,12,04,33,-5.30
2009,03,12,04,34,-5.30
2009,03,12,04,35,-5.30
2009,03,12,04,36,-5.30
2009,03,12,04,37,-5.30
2009,03,12,04,38,-5.30
2009,03,12,04,39,-5.30
2009,03,12,04,40,-5.30
2009,03,12,04,41,-5.20
2009,03,12,04,42,-5.20
2009,03,12,04,43,-5.20
2009,03,12,04,44,-5.20
2009,03,12,04,45,-5.10
2009,03,12,04,46,-5.10
2009,03,12,04,47,-5.10
2009,03,12,04,48,-5.10
2009,03,12,04,49,-5.10
2009,03,12,04,50,-5.10
2009,03,12,04,51,-5.10
2009,03,12,04,52,-5.10
2009,03,12,04,53,-5.10
2009,03,12,04,54,-5.10
2009,03,12,04,55,-5.10
2009,03,12,04,56,-5.20
2009,03,12,04,57,-5.20
2009,03,12,04,58,-5.20
2009,03,12,04,59,-5.20
2009,03,12,05,00,-5.20
2009,03,12,05,01,-5.20
2009,03,12,05,02,-5.20
2009,03,12,05,03,-5.30
2009,03,12,05,04,-5.30
2009,03,12,05,05,-5.30
2009,03,12,05,06,-5.30
2009,03,12,05,07,-5.30
2009,03,12,05,08,-5.30
2009,03,12,05,09,-5.30
2009,03,12,05,10,-5.30
2009,03,12,05,11,-5.30
2009,03,12,05,12,-5.30
2009,03,12,05,13,-5.30
2009,03,12,05,14,-5.30
2009,03,12,05,15,-5.30
2009,03,12,05,16,-5.30
2009,03,12,05,17,-5.30
2009,03,12,05,18,-5.30
2009,03,12,05,19,-5.30
2009,03,12,05,20,-5.30
2009,03,12,05,21,-5.30
2009,03,12,05,22,-5.30
2009,03,12,05,23,-5.40
2009,03,12,05,24,-5.40
2009,03,12,05,25,-5.40
2009,03,12,05,26,-5.40
2009,03,12,05,27,-5.40
2009,03,12,05,28,-5.40
2009,03,12,05,29,-5.40
2009,03,12,05,30,-5.40
2009,03,12,05,31,-5.40
2009,03,12,05,32,-5.40
2009,03,12,05,33,-5.40
2009,03,12,05,34,-5.40
2009,03,12,05,35,-5.40
2009,03,12,05,36,-5.40
2009,03,12,05,37,-5.40
2009,03,12,05,38,-5.40
2009,03,12,05,39,-5.40
2009,03,12,05,40,-5.40
2009,03,12,05,41,-5.50
2009,03,12,05,42,-5.50
2009,03,12,05,43,-5.50
2009,03,12,05,44,-5.50
2009,03,12,05,45,-5.50
2009,03,12,05,46,-5.50
2009,03,12,05,47,-5.50
2009,03,12,05,48,-5.50
2009,03,12,05,49,-5.60
2009,03,12,05,50,-5.60
2009,03,12,05,51,-5.60
2009,03,12,05,52,-5.60
2009,03,12,05,53,-5.60
2009,03,12,05,54,-5.60
2009,03,12,05,55,-5.60
2009,03,12,05,56,-5.60
2009,03,12,05,57,-5.60
2009,03,12,05,58,-5.60
2009,03,12,05,59,-5.60
2009,03,12,06,00,-5.60
2009,03,12,06,01,-5.60
2009,03,12,06,02,-5.60
2009,03,12,06,03,-5.60
2009,03,12,06,04,-5.60
2009,03,12,06,05,-5.60
2009,03,12,06,06,-5.60
2009,03,12,06,07,-5.60
2009,03,12,06,08,-5.70
2009,03,12,06,09,-5.60
2009,03,12,06,10,-5.60
2009,03,12,06,11,-5.60
2009,03,12,06,12,-5.60
2009,03,12,06,13,-5.60
2009,03,12,06,14,-5.60
2009,03,12,06,15,-5.60
2009,03,12,06,16,-5.60
2009,03,12,06,17,-5.60
2009,03,12,06,18,-5.60
2009,03,12,06,19,-5.60
2009,03,12,06,20,-5.60
2009,03,12,06,21,-5.60
2009,03,12,06,22,-5.60
2009,03,12,06,23,-5.60
2009,03,12,06,24,-5.60
2009,03,12,06,25,-5.60
2009,03,12,06,26,-5.60
2009,03,12,06,27,-5.60
2009,03,12,06,28,-5.60
2009,03,12,06,29,-5.60
2009,03,12,06,30,-5.70
2009,03,12,06,31,-5.70
2009,03,12,06,32,-5.70
2009,03,12,06,33,-5.70
2009,03,12,06,34,-5.70
2009,03,12,06,35,-5.70
2009,03,12,06,36,-5.70
2009,03,12,06,37,-5.70
2009,03,12,06,38,-5.70
2009,03,12,06,39,-5.70
2009,03,12,06,40,-5.70
2009,03,12,06,41,-5.70
2009,03,12,06,42,-5.70
2009,03,12,06,43,-5.70
2009,03,12,06,44,-5.70
2009,03,12,06,45,-5.70
2009,03,12,06,46,-5.70
2009,03,12,06,47,-5.70
2009,03,12,06,48,-5.70
2009,03,12,06,49,-5.70
2009,03,12,06,50,-5.70
2009,03,12,06,51,-5.70
2009,03,12,06,52,-5.70
2009,03,12,06,53,-5.70
2009,03,12,06,54,-5.70
2009,03,12,06,55,-5.70
2009,03,12,06,56,-5.70
2009,03,12,06,57,-5.70
2009,03,12,06,58,-5.70
2009,03,12,06,59,-5.70
2009,03,12,07,00,-5.70
2009,03,12,07,01,-5.70
2009,03,12,07,02,-5.70
2009,03,12,07,03,-5.70
2009,03,12,07,04,-5.70
2009,03,12,07,05,-5.70
2009,03,12,07,06,-5.70
2009,03,12,07,07,-5.80
2009,03,12,07,08,-5.80
2009,03,12,07,09,-5.80
2009,03,12,07,10,-5.80
2009,03,12,07,11,-5.80
2009,03,12,07,12,-5.80
2009,03,12,07,13,-5.80
2009,03,12,07,14,-5.70
2009,03,12,07,15,-5.70
2009,03,12,07,16,-5.70
2009,03,12,07,17,-5.70
2009,03,12,07,18,-5.70
2009,03,12,07,19,-5.60
2009,03,12,07,20,-5.60
2009,03,12,07,21,-5.60
2009,03,12,07,22,-5.50
2009,03,12,07,23,-5.50
2009,03,12,07,24,-5.40
2009,03,12,07,25,-5.40
2009,03,12,07,26,-5.40
2009,03,12,07,27,-5.30
2009,03,12,07,28,-5.30
2009,03,12,07,29,-5.30
2009,03,12,07,30,-5.30
2009,03,12,07,31,-5.30
2009,03,12,07,32,-5.30
2009,03,12,07,33,-5.30
2009,03,12,07,34,-5.20
2009,03,12,07,35,-5.20
2009,03,12,07,36,-5.20
2009,03,12,07,37,-5.10
2009,03,12,07,38,-5.10
2009,03,12,07,39,-5.00
2009,03,12,07,40,-5.00
2009,03,12,07,41,-4.90
2009,03,12,07,42,-4.90
2009,03,12,07,43,-4.80
2009,03,12,07,44,-4.70
2009,03,12,07,45,-4.70
2009,03,12,07,46,-4.60
2009,03,12,07,47,-4.50
2009,03,12,07,48,-4.40
2009,03,12,07,49,-4.40
2009,03,12,07,50,-4.30
2009,03,12,07,51,-4.30
2009,03,12,07,52,-4.20
2009,03,12,07,53,-4.20
2009,03,12,07,54,-4.10
2009,03,12,07,55,-4.00
2009,03,12,07,56,-4.00
2009,03,12,07,57,-3.90
2009,03,12,07,58,-3.90
2009,03,12,07,59,-3.80
2009,03,12,08,00,-3.80
2009,03,12,08,01,-3.70
2009,03,12,08,02,-3.70
2009,03,12,08,03,-3.70
2009,03,12,08,04,-3.70
2009,03,12,08,05,-3.60
2009,03,12,08,06,-3.60
2009,03,12,08,07,-3.50
2009,03,12,08,08,-3.50
2009,03,12,08,09,-3.40
2009,03,12,08,10,-3.40
2009,03,12,08,11,-3.40
2009,03,12,08,12,-3.30
2009,03,12,08,13,-3.30
2009,03,12,08,14,-3.20
2009,03,12,08,15,-3.20
2009,03,12,08,16,-3.20
2009,03,12,08,17,-3.10
2009,03,12,08,18,-3.10
2009,03,12,08,19,-3.10
2009,03,12,08,20,-3.00
2009,03,12,08,21,-3.00
2009,03,12,08,22,-3.00
2009,03,12,08,23,-2.90
2009,03,12,08,24,-2.90
2009,03,12,08,25,-2.80
2009,03,12,08,26,-2.80
2009,03,12,08,27,-2.80
2009,03,12,08,28,-2.70
2009,03,12,08,29,-2.70
2009,03,12,08,30,-2.60
2009,03,12,08,31,-2.60
2009,03,12,08,32,-2.60
2009,03,12,08,33,-2.60
2009,03,12,08,34,-2.50
2009,03,12,08,35,-2.50
2009,03,12,08,36,-2.40
2009,03,12,08,37,-2.40
2009,03,12,08,38,-2.30
2009,03,12,08,39,-2.30
2009,03,12,08,40,-2.30
2009,03,12,08,41,-2.20
2009,03,12,08,42,-2.20
2009,03,12,08,43,-2.10
2009,03,12,08,44,-2.10
2009,03,12,08,45,-2.00
2009,03,12,08,46,-2.00
2009,03,12,08,47,-1.90
2009,03,12,08,48,-1.90
2009,03,12,08,49,-1.90
2009,03,12,08,50,-1.90
2009,03,12,08,51,-1.90
2009,03,12,08,52,-1.80
2009,03,12,08,53,-1.80
2009,03,12,08,54,-1.80
2009,03,12,08,55,-1.80
2009,03,12,08,56,-1.80
2009,03,12,08,57,-1.70
2009,03,12,08,58,-1.70
2009,03,12,08,59,-1.70
2009,03,12,09,00,-1.60
2009,03,12,09,01,-1.60
2009,03,12,09,02,-1.50
2009,03,12,09,03,-1.40
2009,03,12,09,04,-1.40
2009,03,12,09,05,-1.30
2009,03,12,09,06,-1.20
2009,03,12,09,07,-1.10
2009,03,12,09,08,-1.10
2009,03,12,09,09,-1.00
2009,03,12,09,10,-0.90
2009,03,12,09,11,-0.90
2009,03,12,09,12,-0.80
2009,03,12,09,13,-0.80
2009,03,12,09,14,-0.80
2009,03,12,09,15,-0.80
2009,03,12,09,16,-0.70
2009,03,12,09,17,-0.70
2009,03,12,09,18,-0.70
2009,03,12,09,19,-0.60
2009,03,12,09,20,-0.50
2009,03,12,09,21,-0.40
2009,03,12,09,22,-0.30
2009,03,12,09,23,-0.20
2009,03,12,09,24,-0.20
2009,03,12,09,25,-0.10
2009,03,12,09,26,0.00
2009,03,12,09,27,0.00
2009,03,12,09,28,0.00
2009,03,12,09,29,0.00
2009,03,12,09,30,0.00
2009,03,12,09,31,0.00
2009,03,12,09,32,0.10
2009,03,12,09,33,0.10
2009,03,12,09,34,0.10
2009,03,12,09,35,0.20
2009,03,12,09,36,0.20
2009,03,12,09,37,0.30
2009,03,12,09,38,0.40
2009,03,12,09,39,0.50
2009,03,12,09,40,0.60
2009,03,12,09,41,0.60
2009,03,12,09,42,0.70
2009,03,12,09,43,0.80
2009,03,12,09,44,0.80
2009,03,12,09,45,0.80
2009,03,12,09,46,0.90
2009,03,12,09,47,1.00
2009,03,12,09,48,1.10
2009,03,12,09,49,1.20
2009,03,12,09,50,1.30
2009,03,12,09,51,1.30
2009,03,12,09,52,1.30
2009,03,12,09,53,1.40
2009,03,12,09,54,1.40
2009,03,12,09,55,1.50
2009,03,12,09,56,1.60
2009,03,12,09,57,1.70
2009,03,12,09,58,1.70
2009,03,12,09,59,1.80
2009,03,12,10,00,1.80
2009,03,12,10,01,2.00
2009,03,12,10,02,2.10
2009,03,12,10,03,2.30
2009,03,12,10,04,2.40
2009,03,12,10,05,2.50
2009,03,12,10,06,2.60
2009,03,12,10,07,2.70
2009,03,12,10,08,2.80
2009,03,12,10,09,2.90
2009,03,12,10,10,2.90
2009,03,12,10,11,3.00
2009,03,12,10,12,3.00
2009,03,12,10,13,3.00
2009,03,12,10,14,3.00
2009,03,12,10,15,3.00
2009,03,12,10,16,3.10
2009,03,12,10,17,3.10
2009,03,12,10,18,3.20
2009,03,12,10,19,3.20
2009,03,12,10,20,3.20
2009,03,12,10,21,3.20
2009,03,12,10,22,3.20
2009,03,12,10,23,3.30
2009,03,12,10,24,3.30
2009,03,12,10,25,3.30
2009,03,12,10,26,3.30
2009,03,12,10,27,3.40
2009,03,12,10,28,3.50
2009,03,12,10,29,3.60
2009,03,12,10,30,3.60
2009,03,12,10,31,3.70
2009,03,12,10,32,3.80
2009,03,12,10,33,3.90
2009,03,12,10,34,4.00
2009,03,12,10,35,4.10
2009,03,12,10,36,4.20
2009,03,12,10,37,4.20
2009,03,12,10,38,4.30
2009,03,12,10,39,4.30
2009,03,12,10,40,4.40
2009,03,12,10,41,4.40
2009,03,12,10,42,4.40
2009,03,12,10,43,4.40
2009,03,12,10,44,4.40
2009,03,12,10,45,4.40
2009,03,12,10,46,4.40
2009,03,12,10,47,4.40
2009,03,12,10,48,4.40
2009,03,12,10,49,4.40
2009,03,12,10,50,4.50
2009,03,12,10,51,4.50
2009,03,12,10,52,4.60
2009,03,12,10,53,4.70
2009,03,12,10,54,4.70
2009,03,12,10,55,4.70
2009,03,12,10,56,4.80
2009,03,12,10,57,4.80
2009,03,12,10,58,4.80
2009,03,12,10,59,4.80
2009,03,12,11,00,4.90
2009,03,12,11,01,4.90
2009,03,12,11,02,5.00
2009,03,12,11,03,5.00
2009,03,12,11,04,5.10
2009,03,12,11,05,5.00
2009,03,12,11,06,5.00
2009,03,12,11,07,5.00
2009,03,12,11,08,5.00
2009,03,12,11,09,5.00
2009,03,12,11,10,5.00
2009,03,12,11,11,5.00
2009,03,12,11,12,4.90
2009,03,12,11,13,4.90
2009,03,12,11,14,4.90
2009,03,12,11,15,4.90
2009,03,12,11,16,5.00
2009,03,12,11,17,5.10
2009,03,12,11,18,5.10
2009,03,12,11,19,5.10
2009,03,12,11,20,5.10
2009,03,12,11,21,5.10
2009,03,12,11,22,5.10
2009,03,12,11,23,5.10
2009,03,12,11,24,5.20
2009,03,12,11,25,5.20
2009,03,12,11,26,5.20
2009,03,12,11,27,5.20
2009,03,12,11,28,5.20
2009,03,12,11,29,5.30
2009,03,12,11,30,5.30
2009,03,12,11,31,5.30
2009,03,12,11,32,5.20
2009,03,12,11,33,5.20
2009,03,12,11,34,5.20
2009,03,12,11,35,5.20
2009,03,12,11,36,5.20
2009,03,12,11,37,5.20
2009,03,12,11,38,5.20
2009,03,12,11,39,5.20
2009,03,12,11,40,5.20
2009,03,12,11,41,5.20
2009,03,12,11,42,5.30
2009,03,12,11,43,5.30
2009,03,12,11,44,5.40
2009,03,12,11,45,5.40
2009,03,12,11,46,5.50
2009,03,12,11,47,5.50
2009,03,12,11,48,5.60
2009,03,12,11,49,5.60
2009,03,12,11,50,5.70
2009,03,12,11,51,5.80
2009,03,12,11,52,5.90
2009,03,12,11,53,6.00
2009,03,12,11,54,6.10
2009,03,12,11,55,6.20
2009,03,12,11,56,6.20
2009,03,12,11,57,6.20
2009,03,12,11,58,6.20
2009,03,12,11,59,6.20
2009,03,12,12,00,6.20
2009,03,12,12,01,6.20
2009,03,12,12,02,6.20
2009,03,12,12,03,6.20
2009,03,12,12,04,6.30
2009,03,12,12,05,6.30
2009,03,12,12,06,6.20
2009,03,12,12,07,6.20
2009,03,12,12,08,6.10
2009,03,12,12,09,6.10
2009,03,12,12,10,6.10
2009,03,12,12,11,6.20
2009,03,12,12,12,6.20
2009,03,12,12,13,6.10
2009,03,12,12,14,6.10
2009,03,12,12,15,6.10
2009,03,12,12,16,6.10
2009,03,12,12,17,6.20
2009,03,12,12,18,6.20
2009,03,12,12,19,6.10
2009,03,12,12,20,6.10
2009,03,12,12,21,6.10
2009,03,12,12,22,6.10
2009,03,12,12,23,6.20
2009,03,12,12,24,6.20
2009,03,12,12,25,6.20
2009,03,12,12,26,6.20
2009,03,12,12,27,6.20
2009,03,12,12,28,6.10
2009,03,12,12,29,6.10
2009,03,12,12,30,6.10
2009,03,12,12,31,6.10
2009,03,12,12,32,6.00
2009,03,12,12,33,6.00
2009,03,12,12,34,6.00
2009,03,12,12,35,6.10
2009,03,12,12,36,6.10
2009,03,12,12,37,6.20
2009,03,12,12,38,6.30
2009,03,12,12,39,6.30
2009,03,12,12,40,6.40
2009,03,12,12,41,6.40
2009,03,12,12,42,6.40
2009,03,12,12,43,6.30
2009,03,12,12,44,6.20
2009,03,12,12,45,6.30
2009,03,12,12,46,6.30
2009,03,12,12,47,6.40
2009,03,12,12,48,6.40
2009,03,12,12,49,6.50
2009,03,12,12,50,6.50
2009,03,12,12,51,6.60
2009,03,12,12,52,6.70
2009,03,12,12,53,6.70
2009,03,12,12,54,6.80
2009,03,12,12,55,6.80
2009,03,12,12,56,6.90
2009,03,12,12,57,6.90
2009,03,12,12,58,7.00
2009,03,12,12,59,7.10
2009,03,12,13,00,7.10
2009,03,12,13,01,7.10
2009,03,12,13,02,7.10
2009,03,12,13,03,7.10
2009,03,12,13,04,7.00
2009,03,12,13,05,7.00
2009,03,12,13,06,7.00
2009,03,12,13,07,7.00
2009,03,12,13,08,7.10
2009,03,12,13,09,7.10
2009,03,12,13,10,7.20
2009,03,12,13,11,7.20
2009,03,12,13,12,7.20
2009,03,12,13,13,7.20
2009,03,12,13,14,7.20
2009,03,12,13,15,7.20
2009,03,12,13,16,7.20
2009,03,12,13,17,7.20
2009,03,12,13,18,7.20
2009,03,12,13,19,7.20
2009,03,12,13,20,7.20
2009,03,12,13,21,7.10
2009,03,12,13,22,7.00
2009,03,12,13,23,6.90
2009,03,12,13,24,6.90
2009,03,12,13,25,7.00
2009,03,12,13,26,7.10
2009,03,12,13,27,7.10
2009,03,12,13,28,7.10
2009,03,12,13,29,7.20
2009,03,12,13,30,7.20
2009,03,12,13,31,7.30
2009,03,12,13,32,7.40
2009,03,12,13,33,7.40
2009,03,12,13,34,7.40
2009,03,12,13,35,7.30
2009,03,12,13,36,7.30
2009,03,12,13,37,7.20
2009,03,12,13,38,7.20
2009,03,12,13,39,7.30
2009,03,12,13,40,7.40
2009,03,12,13,41,7.40
2009,03,12,13,42,7.40
2009,03,12,13,43,7.30
2009,03,12,13,44,7.30
2009,03,12,13,45,7.20
2009,03,12,13,46,7.30
2009,03,12,13,47,7.30
2009,03,12,13,48,7.40
2009,03,12,13,49,7.50
2009,03,12,13,50,7.60
2009,03,12,13,51,7.60
2009,03,12,13,52,7.70
2009,03,12,13,53,7.70
2009,03,12,13,54,7.70
2009,03,12,13,55,7.60
2009,03,12,13,56,7.60
2009,03,12,13,57,7.70
2009,03,12,13,58,7.70
2009,03,12,13,59,7.70
2009,03,12,14,00,7.70
2009,03,12,14,01,7.60
2009,03,12,14,02,7.60
2009,03,12,14,03,7.60
2009,03,12,14,04,7.60
2009,03,12,14,05,7.60
2009,03,12,14,06,7.70
2009,03,12,14,07,7.80
2009,03,12,14,08,7.80
2009,03,12,14,09,7.80
2009,03,12,14,10,7.80
2009,03,12,14,11,7.80
2009,03,12,14,12,7.80
2009,03,12,14,13,7.70
2009,03,12,14,14,7.70
2009,03,12,14,15,7.80
2009,03,12,14,16,7.80
2009,03,12,14,17,7.80
2009,03,12,14,18,7.80
2009,03,12,14,19,7.90
2009,03,12,14,20,7.90
2009,03,12,14,21,7.90
2009,03,12,14,22,8.00
2009,03,12,14,23,8.10
2009,03,12,14,24,8.20
2009,03,12,14,25,8.20
2009,03,12,14,26,8.20
2009,03,12,14,27,8.10
2009,03,12,14,28,8.10
2009,03,12,14,29,8.00
2009,03,12,14,30,8.00
2009,03,12,14,31,7.90
2009,03,12,14,32,7.80
2009,03,12,14,33,7.80
2009,03,12,14,34,7.80
2009,03,12,14,35,7.80
2009,03,12,14,36,7.90
2009,03,12,14,37,7.90
2009,03,12,14,38,7.90
2009,03,12,14,39,7.90
2009,03,12,14,40,7.90
2009,03,12,14,41,8.00
2009,03,12,14,42,8.00
2009,03,12,14,43,8.10
2009,03,12,14,44,8.10
2009,03,12,14,45,8.20
2009,03,12,14,46,8.20
2009,03,12,14,47,8.20
2009,03,12,14,48,8.10
2009,03,12,14,49,8.00
2009,03,12,14,50,7.90
2009,03,12,14,51,7.90
2009,03,12,14,52,7.80
2009,03,12,14,53,7.80
2009,03,12,14,54,7.80
2009,03,12,14,55,7.80
2009,03,12,14,56,7.80
2009,03,12,14,57,7.80
2009,03,12,14,58,7.80
2009,03,12,14,59,7.80
2009,03,12,15,00,7.80
2009,03,12,15,01,7.80
2009,03,12,15,02,7.80
2009,03,12,15,03,7.80
2009,03,12,15,04,7.90
2009,03,12,15,05,7.90
2009,03,12,15,06,7.90
2009,03,12,15,07,7.90
2009,03,12,15,08,7.90
2009,03,12,15,09,7.90
2009,03,12,15,10,7.90
2009,03,12,15,11,7.90
2009,03,12,15,12,7.90
2009,03,12,15,13,7.90
2009,03,12,15,14,7.90
2009,03,12,15,15,8.00
2009,03,12,15,16,8.00
2009,03,12,15,17,8.00
2009,03,12,15,18,8.00
2009,03,12,15,19,7.90
2009,03,12,15,20,7.80
2009,03,12,15,21,7.80
2009,03,12,15,22,7.70
2009,03,12,15,23,7.70
2009,03,12,15,24,7.80
2009,03,12,15,25,7.80
2009,03,12,15,26,7.90
2009,03,12,15,27,8.00
2009,03,12,15,28,8.10
2009,03,12,15,29,8.10
2009,03,12,15,30,8.20
2009,03,12,15,31,8.30
2009,03,12,15,32,8.20
2009,03,12,15,33,8.20
2009,03,12,15,34,8.20
2009,03,12,15,35,8.20
2009,03,12,15,36,8.20
2009,03,12,15,37,8.10
2009,03,12,15,38,8.10
2009,03,12,15,39,8.10
2009,03,12,15,40,8.10
2009,03,12,15,41,8.20
2009,03,12,15,42,8.20
2009,03,12,15,43,8.20
2009,03,12,15,44,8.30
2009,03,12,15,45,8.50
2009,03,12,15,46,8.60
2009,03,12,15,47,8.70
2009,03,12,15,48,8.80
2009,03,12,15,49,8.80
2009,03,12,15,50,8.70
2009,03,12,15,51,8.70
2009,03,12,15,52,8.50
2009,03,12,15,53,8.40
2009,03,12,15,54,8.30
2009,03,12,15,55,8.30
2009,03,12,15,56,8.30
2009,03,12,15,57,8.30
2009,03,12,15,58,8.30
2009,03,12,15,59,8.40
2009,03,12,16,00,8.40
2009,03,12,16,01,8.40
2009,03,12,16,02,8.40
2009,03,12,16,03,8.50
2009,03,12,16,04,8.50
2009,03,12,16,05,8.40
2009,03,12,16,06,8.40
2009,03,12,16,07,8.30
2009,03,12,16,08,8.30
2009,03,12,16,09,8.20
2009,03,12,16,10,8.20
2009,03,12,16,11,8.30
2009,03,12,16,12,8.30
2009,03,12,16,13,8.40
2009,03,12,16,14,8.50
2009,03,12,16,15,8.50
2009,03,12,16,16,8.50
2009,03,12,16,17,8.50
2009,03,12,16,18,8.50
2009,03,12,16,19,8.50
2009,03,12,16,20,8.50
2009,03,12,16,21,8.60
2009,03,12,16,22,8.70
2009,03,12,16,23,8.80
2009,03,12,16,24,8.80
2009,03,12,16,25,8.90
2009,03,12,16,26,8.90
2009,03,12,16,27,9.00
2009,03,12,16,28,9.10
2009,03,12,16,29,9.20
2009,03,12,16,30,9.10
2009,03,12,16,31,9.10
2009,03,12,16,32,9.10
2009,03,12,16,33,9.10
2009,03,12,16,34,9.10
2009,03,12,16,35,9.10
2009,03,12,16,36,9.10
2009,03,12,16,37,9.10
2009,03,12,16,38,9.10
2009,03,12,16,39,9.10
2009,03,12,16,40,9.00
2009,03,12,16,41,9.00
2009,03,12,16,42,8.90
2009,03,12,16,43,8.80
2009,03,12,16,44,8.80
2009,03,12,16,45,8.70
2009,03,12,16,46,8.70
2009,03,12,16,47,8.60
2009,03,12,16,48,8.50
2009,03,12,16,49,8.50
2009,03,12,16,50,8.40
2009,03,12,16,51,8.40
2009,03,12,16,52,8.40
2009,03,12,16,53,8.40
2009,03,12,16,54,8.40
2009,03,12,16,55,8.40
2009,03,12,16,56,8.40
2009,03,12,16,57,8.30
2009,03,12,16,58,8.30
2009,03,12,16,59,8.30
2009,03,12,17,00,8.30
2009,03,12,17,01,8.40
2009,03,12,17,02,8.30
2009,03,12,17,03,8.40
2009,03,12,17,04,8.40
2009,03,12,17,05,8.40
2009,03,12,17,06,8.40
2009,03,12,17,07,8.50
2009,03,12,17,08,8.50
2009,03,12,17,09,8.50
2009,03,12,17,10,8.40
2009,03,12,17,11,8.30
2009,03,12,17,12,8.30
2009,03,12,17,13,8.30
2009,03,12,17,14,8.30
2009,03,12,17,15,8.30
2009,03,12,17,16,8.30
2009,03,12,17,17,8.30
2009,03,12,17,18,8.30
2009,03,12,17,19,8.30
2009,03,12,17,20,8.30
2009,03,12,17,21,8.30
2009,03,12,17,22,8.40
2009,03,12,17,23,8.50
2009,03,12,17,24,8.50
2009,03,12,17,25,8.40
2009,03,12,17,26,8.40
2009,03,12,17,27,8.30
2009,03,12,17,28,8.30
2009,03,12,17,29,8.30
2009,03,12,17,30,8.40
2009,03,12,17,31,8.40
2009,03,12,17,32,8.30
2009,03,12,17,33,8.20
2009,03,12,17,34,8.00
2009,03,12,17,35,8.00
2009,03,12,17,36,7.90
2009,03,12,17,37,7.90
2009,03,12,17,38,8.00
2009,03,12,17,39,8.00
2009,03,12,17,40,8.00
2009,03,12,17,41,7.80
2009,03,12,17,42,7.70
2009,03,12,17,43,7.50
2009,03,12,17,44,7.40
2009,03,12,17,45,7.40
2009,03,12,17,46,7.40
2009,03,12,17,47,7.30
2009,03,12,17,48,7.30
2009,03,12,17,49,7.30
2009,03,12,17,50,7.30
2009,03,12,17,51,7.30
2009,03,12,17,52,7.30
2009,03,12,17,53,7.20
2009,03,12,17,54,7.20
2009,03,12,17,55,7.20
2009,03,12,17,56,7.20
2009,03,12,17,57,7.20
2009,03,12,17,58,7.20
2009,03,12,17,59,7.20
2009,03,12,18,00,7.20
2009,03,12,18,01,7.20
2009,03,12,18,02,7.20
2009,03,12,18,03,7.20
2009,03,12,18,04,7.20
2009,03,12,18,05,7.10
2009,03,12,18,06,7.10
2009,03,12,18,07,7.00
2009,03,12,18,08,6.90
2009,03,12,18,09,6.90
2009,03,12,18,10,6.90
2009,03,12,18,11,6.80
2009,03,12,18,12,6.70
2009,03,12,18,13,6.60
2009,03,12,18,14,6.60
2009,03,12,18,15,6.50
2009,03,12,18,16,6.50
2009,03,12,18,17,6.40
2009,03,12,18,18,6.40
2009,03,12,18,19,6.50
2009,03,12,18,20,6.50
2009,03,12,18,21,6.40
2009,03,12,18,22,6.40
2009,03,12,18,23,6.40
2009,03,12,18,24,6.40
2009,03,12,18,25,6.30
2009,03,12,18,26,6.30
2009,03,12,18,27,6.30
2009,03,12,18,28,6.30
2009,03,12,18,29,6.30
2009,03,12,18,30,6.20
2009,03,12,18,31,6.20
2009,03,12,18,32,6.20
2009,03,12,18,33,6.20
2009,03,12,18,34,6.10
2009,03,12,18,35,6.10
2009,03,12,18,36,6.10
2009,03,12,18,37,6.10
2009,03,12,18,38,6.00
2009,03,12,18,39,5.90
2009,03,12,18,40,5.90
2009,03,12,18,41,5.90
2009,03,12,18,42,5.90
2009,03,12,18,43,5.90
2009,03,12,18,44,5.80
2009,03,12,18,45,5.80
2009,03,12,18,46,5.80
2009,03,12,18,47,5.80
2009,03,12,18,48,5.80
2009,03,12,18,49,5.80
2009,03,12,18,50,5.70
2009,03,12,18,51,5.60
2009,03,12,18,52,5.60
2009,03,12,18,53,5.40
2009,03,12,18,54,5.30
2009,03,12,18,55,5.30
2009,03,12,18,56,5.20
2009,03,12,18,57,5.20
2009,03,12,18,58,5.10
2009,03,12,18,59,5.10
2009,03,12,19,00,5.10
2009,03,12,19,01,5.00
2009,03,12,19,02,4.90
2009,03,12,19,03,4.90
2009,03,12,19,04,4.90
2009,03,12,19,05,4.80
2009,03,12,19,06,4.80
2009,03,12,19,07,4.70
2009,03,12,19,08,4.70
2009,03,12,19,09,4.60
2009,03,12,19,10,4.60
2009,03,12,19,11,4.50
2009,03,12,19,12,4.50
2009,03,12,19,13,4.50
2009,03,12,19,14,4.50
2009,03,12,19,15,4.40
2009,03,12,19,16,4.30
2009,03,12,19,17,4.20
2009,03,12,19,18,4.20
2009,03,12,19,19,4.10
2009,03,12,19,20,4.00
2009,03,12,19,21,3.90
2009,03,12,19,22,3.90
2009,03,12,19,23,3.80
2009,03,12,19,24,3.80
2009,03,12,19,25,3.80
2009,03,12,19,26,3.70
2009,03,12,19,27,3.70
2009,03,12,19,28,3.70